TimeEST,TemperatureF,Dew PointF,Humidity,Sea Level PressureIn,VisibilityMPH,Wind Direction,Wind SpeedMPH,Gust SpeedMPH,PrecipitationIn,Events,Conditions,WindDirDegrees,DateUTC
12:54 AM,55.0,46.9,74,30.38,10.0,West,5.8,-,N/A,,Clear,270,2013-01-10 05:54:00
1:54 AM,55.0,46.9,74,30.40,10.0,West,4.6,-,N/A,,Clear,280,2013-01-10 06:54:00
2:54 AM,52.0,46.9,83,30.42,9.0,Calm,Calm,-,N/A,,Clear,0,2013-01-10 07:54:00
3:07 AM,48.2,44.6,87,30.42,1.8,Calm,Calm,-,N/A,,Clear,0,2013-01-10 08:07:00
3:22 AM,46.4,42.8,87,30.42,0.2,Calm,Calm,-,N/A,,Haze,0,2013-01-10 08:22:00
3:40 AM,44.6,39.2,81,30.43,0.2,Calm,Calm,-,N/A,Fog,Fog,0,2013-01-10 08:40:00
3:54 AM,45.0,41.0,86,30.43,0.2,Calm,Calm,-,N/A,Fog,Fog,0,2013-01-10 08:54:00
4:36 AM,44.6,39.2,81,30.45,0.2,Calm,Calm,-,N/A,Fog,Fog,0,2013-01-10 09:36:00
4:54 AM,43.0,39.0,86,30.45,0.2,Calm,Calm,-,N/A,Fog,Fog,0,2013-01-10 09:54:00
5:46 AM,39.2,37.4,93,30.47,0.2,Calm,Calm,-,N/A,Fog,Fog,0,2013-01-10 10:46:00
5:54 AM,41.0,37.0,86,30.47,6.0,Calm,Calm,-,N/A,,Clear,0,2013-01-10 10:54:00
6:01 AM,42.8,37.4,81,30.47,0.5,Calm,Calm,-,N/A,,Mist,0,2013-01-10 11:01:00
6:05 AM,44.6,39.2,81,30.47,1.8,Calm,Calm,-,N/A,,Partly Cloudy,0,2013-01-10 11:05:00
6:07 AM,42.8,39.2,87,30.47,4.0,Calm,Calm,-,N/A,,Partly Cloudy,0,2013-01-10 11:07:00
6:54 AM,39.0,33.1,79,30.50,10.0,Calm,Calm,-,N/A,,Clear,0,2013-01-10 11:54:00
7:54 AM,46.0,32.0,58,30.53,10.0,NNE,8.1,-,N/A,,Clear,30,2013-01-10 12:54:00
8:54 AM,52.0,30.0,43,30.55,10.0,NNE,8.1,-,N/A,,Clear,20,2013-01-10 13:54:00
9:54 AM,54.0,28.9,38,30.58,10.0,NE,8.1,-,N/A,,Clear,40,2013-01-10 14:54:00
10:54 AM,55.9,28.0,34,30.57,10.0,NE,9.2,-,N/A,,Clear,50,2013-01-10 15:54:00
11:54 AM,57.0,26.1,30,30.54,10.0,NE,6.9,-,N/A,,Clear,40,2013-01-10 16:54:00
12:54 PM,57.2,28.4,33,30.52,10.0,ENE,10.4,-,N/A,,Clear,70,2013-01-10 17:54:00
1:54 PM,55.0,32.0,42,30.51,10.0,East,10.4,-,N/A,,Clear,90,2013-01-10 18:54:00
2:54 PM,53.1,30.0,41,30.51,10.0,East,11.5,-,N/A,,Clear,80,2013-01-10 19:54:00
3:54 PM,50.0,28.0,43,30.53,10.0,NE,4.6,-,N/A,,Clear,50,2013-01-10 20:54:00
4:54 PM,48.0,30.0,50,30.52,10.0,ENE,4.6,-,N/A,,Clear,70,2013-01-10 21:54:00
5:54 PM,46.9,30.0,52,30.51,10.0,Calm,Calm,-,N/A,,Clear,0,2013-01-10 22:54:00
6:54 PM,46.0,30.9,56,30.52,10.0,Calm,Calm,-,N/A,,Clear,0,2013-01-10 23:54:00
7:54 PM,44.1,32.0,63,30.51,10.0,ENE,3.5,-,N/A,,Clear,60,2013-01-11 00:54:00
8:54 PM,44.1,32.0,63,30.52,10.0,Calm,Calm,-,N/A,,Clear,0,2013-01-11 01:54:00
9:54 PM,37.0,28.0,70,30.51,10.0,ENE,4.6,-,N/A,,Clear,60,2013-01-11 02:54:00
10:54 PM,37.9,28.0,68,30.51,10.0,Calm,Calm,-,N/A,,Clear,0,2013-01-11 03:54:00
11:54 PM,35.6,28.4,75,30.51,10.0,Calm,Calm,-,N/A,,Clear,0,2013-01-11 04:54:00